THORAD DELTA 1 DEB, 8596

Orbit data source: Space-Track

THORAD DELTA 1 DEB, 8596 is space debris in SSO originally from a launch on Fri, 15 Nov 1974 UTC launched from the Air Force Western Test Range (AFWTR). Debris objects in space refer to the collection of defunct objects orbiting the Earth. Examples of debris include non-operational satellites, rocket bodies, and fragments generated from explosions, collisions, or faulty payload assembly.

Loading next visibility...
Identifier
8596, 1974-089DK
Orbit
SSO
Country
Flag of USUS
Related business
Manufacturer
Unknown
Mission
Spacecraft
Bus & Motor
Unknown
Mass
Unknown
Launch date (UTC)
1974-11-15 (51 years ago)
Launch vehicle
Unknown
Launch site
Air Force Western Test Range (AFWTR)
Object type
Payload
Rocket body
Debris
Shape & HBR
Unknown shape, 0.1 m
Radar Cross Section
Small (<0.1 m²)

Expand to show TLE details & history
Last TLE update: 10 hours ago

TLE from 10 hours ago
0 THORAD DELTA 1 DEB
1 08596U 74089DK  26104.10467733  .00000006  00000-0  26494-3 0  9994
2 08596 101.7806 334.6735 0088637  76.3006  78.0747 12.68832137378695
Epoch: 2026-04-14T02:30Z
TLE epoch observation values (Epoch: 2026-04-14T02:30:44.121Z)
Latitude
24.10161°
Longitude
-79.96925°
Altitude
1,375.696 km
Speed
7.18 km/s
True Right ascension
10h 40m 00s
True Declination
23° 59' 02"
Sunlit
Object was in full shadow at epoch
Visualization orbit readout
Latitude
Unknown
Longitude
Unknown
Altitude
Unknown
Speed
Unknown
Apparent Right ascension
Unknown
Apparent Declination
Unknown
Sunlit
N/A
Visualization observer readout
Local Sidereal Time
18:46:40
Azimuth
Unknown
Elevation
Unknown
Doppler factor
Unknown
Orbital elements
Apogee altitude
1,453.028 km
Perigee altitude
1,315.421 km
Semi-major axis
7,762.362 km
Eccentricity
0.00886
Inclination
101.7806°
RAAN
334.6735°
Arg. of periapsis
76.3006°
True anomaly
79.07071°
Mean anomaly
78.0747°
Eccentric anomaly
78.57249°
Mean motion
3.1736 °/min
Orbital period
113.44 mins
BSTAR
0.00026494
Loading maneuver chart data...
Computing Atmospheric mass density...

Documentation

Showing up to 5 results
|